Weather History for Denver, CO

Change the Weather History Date:

Sunday, June 16, 2013

  Actual Average (KDEN) Record (KDEN)
Temperature  
Mean Temperature 72 °F 68 °F  
Max Temperature 86 °F 83 °F 95 °F (1906)
Min Temperature 59 °F 53 °F 40 °F (1961)
Degree Days  
Heating Degree Days 0 2  
Month to date heating degree days 48  
Since 1 June heating degree days 48  
Since 1 July heating degree days 6044  
Cooling Degree Days 8 4  
Month to date cooling degree days 50  
Year to date cooling degree days 72  
Since 1 June cooling degree days 50  
Growing Degree Days 22 (Base 50)    
Moisture  
Dew Point 43 °F    
Average Humidity 45    
Maximum Humidity 67    
Minimum Humidity 14    
Precipitation  
Precipitation 0.00 in 0.07 in 2.06 in (1950)
Month to date precipitation 1.14  
Year to date precipitation 6.67  
Snow  
Snow 0.00 in - - ()
Month to date snowfall  
Since 1 June snowfall  
Since 1 July snowfall  
Snow Depth -    
Sea Level Pressure  
Sea Level Pressure 30.13 in    
Wind  
Wind Speed 9 mph (SSW)    
Max Wind Speed 34 mph    
Max Gust Speed 44 mph    
Visibility 10 miles    
Events      
T = Trace of Precipitation, MM = Missing Value Source: NWS Daily Summary

Daily Weather History Graph

Daily Weather History Graph

Search for Another Location

Airport:

Trip Planner

Search our weather history database for the weather conditions in past years. The results will help you decide how hot, cold, wet, or windy it might be!

Date:

Astronomy

Jun. 16, 2013 Rise Set
Actual Time 5:29 AM MDT 8:28 PM MDT
Civil Twilight 4:56 AM MDT 9:01 PM MDT
Nautical Twilight 4:15 AM MDT 9:42 PM MDT
Astronomical Twilight 3:27 AM MDT 10:30 PM MDT
Moon 1:07 PM MDT (6/16) 12:35 AM MDT (6/16)
Length of Visible Light 16h 04m
Length of Day
14h 59m
Waxing Crescent, 50% of the Moon is Illuminated
Jun 16
Waxing Crescent
Jun 23
Full
Jun 29
Last Quarter
Jul 8
New
Jul 15
First Quarter

Hourly Weather History & Observations

Time (MDT) Temp. Dew Point Humidity Pressure Visibility Wind Dir Wind Speed Gust Speed Precip Events Conditions
12:18 AM 60.8 °F 46.4 °F 59% 30.13 in 10.0 mi East 4.6 mph - N/A   Clear
12:38 AM 60.8 °F 48.2 °F 63% 30.13 in 10.0 mi East 9.2 mph - N/A   Clear
12:58 AM 60.8 °F 48.2 °F 63% 30.13 in 10.0 mi ESE 9.2 mph - N/A   Clear
1:18 AM 60.8 °F 48.2 °F 63% 30.13 in 10.0 mi SE 11.5 mph - N/A   Clear
1:38 AM 59.0 °F 48.2 °F 67% 30.13 in 10.0 mi SSE 11.5 mph - N/A   Clear
1:58 AM 60.8 °F 48.2 °F 63% 30.12 in 10.0 mi South 9.2 mph - N/A   Clear
2:18 AM 60.8 °F 46.4 °F 59% 30.12 in 10.0 mi South 10.4 mph - N/A   Clear
2:38 AM 64.4 °F 46.4 °F 52% 30.11 in 10.0 mi SSE 15.0 mph - N/A   Clear
2:58 AM 62.6 °F 46.4 °F 55% 30.12 in 10.0 mi South 13.8 mph - N/A   Clear
3:17 AM 62.6 °F 46.4 °F 55% 30.12 in 10.0 mi South 12.7 mph - N/A   Clear
3:38 AM 62.6 °F 46.4 °F 55% 30.12 in 10.0 mi SSE 15.0 mph 19.6 mph N/A   Clear
3:58 AM 62.6 °F 44.6 °F 52% 30.12 in 10.0 mi South 10.4 mph - N/A   Clear
4:17 AM 62.6 °F 44.6 °F 52% 30.12 in 10.0 mi South 10.4 mph - N/A   Clear
4:38 AM 62.6 °F 46.4 °F 55% 30.12 in 10.0 mi South 9.2 mph - N/A   Clear
4:58 AM 62.6 °F 46.4 °F 55% 30.12 in 10.0 mi South 9.2 mph - N/A   Clear
5:17 AM 60.8 °F 46.4 °F 59% 30.12 in 10.0 mi South 9.2 mph - N/A   Clear
5:38 AM 60.8 °F 46.4 °F 59% 30.12 in 10.0 mi South 10.4 mph - N/A   Clear
5:58 AM 60.8 °F 46.4 °F 59% 30.13 in 10.0 mi South 11.5 mph 16.1 mph N/A   Clear
6:18 AM 60.8 °F 46.4 °F 59% 30.13 in 10.0 mi South 10.4 mph - N/A   Clear
6:38 AM 64.4 °F 46.4 °F 52% 30.14 in 10.0 mi SSW 11.5 mph - N/A   Clear
6:53 AM 64.4 °F 46.4 °F 52% 30.14 in 10.0 mi SSW 6.9 mph - N/A   Clear
7:47 AM 71.6 °F 46.4 °F 41% 30.15 in 30.0 mi SSW 13.8 mph - N/A   Partly Cloudy
8:52 AM 77.0 °F 42.8 °F 29% 30.15 in 30.0 mi SW 10.4 mph - N/A   Partly Cloudy
9:53 AM 82.4 °F 41.0 °F 23% 30.14 in 30.0 mi WSW 6.9 mph - N/A   Scattered Clouds
10:55 AM 84.2 °F 35.6 °F 18% 30.14 in 30.0 mi Calm Calm - N/A   Scattered Clouds
11:47 AM 86.0 °F 32.0 °F 14% 30.12 in 30.0 mi WSW 4.6 mph - N/A   Mostly Cloudy
12:47 PM 84.2 °F 30.2 °F 14% 30.11 in 30.0 mi Calm Calm - N/A   Mostly Cloudy
1:50 PM 80.6 °F 28.4 °F 15% 30.16 in 30.0 mi WSW 34.5 mph 43.7 mph N/A   Overcast
2:52 PM 77.0 °F 37.4 °F 24% 30.16 in 30.0 mi SSW 15.0 mph 29.9 mph N/A   Mostly Cloudy
3:47 PM 80.6 °F 39.2 °F 23% 30.15 in 30.0 mi WNW 20.7 mph 28.8 mph N/A   Mostly Cloudy
9:18 PM 69.8 °F 37.4 °F 31% 30.14 in 10.0 mi WSW 8.1 mph - N/A   Clear
9:38 PM 68.0 °F 37.4 °F 33% 30.14 in 10.0 mi WSW 6.9 mph - N/A   Clear
9:58 PM 66.2 °F 39.2 °F 37% 30.14 in 10.0 mi SW 5.8 mph - N/A   Clear
10:18 PM 66.2 °F 39.2 °F 37% 30.16 in 10.0 mi SW 4.6 mph - N/A   Clear
10:38 PM 64.4 °F 39.2 °F 40% 30.15 in 10.0 mi SW 8.1 mph - N/A   Clear
10:55 PM 62.6 °F 39.2 °F 42% 30.15 in 10.0 mi SW 4.6 mph - N/A   Clear
11:18 PM 60.8 °F 41.0 °F 48% 30.16 in 10.0 mi WSW 6.9 mph - N/A   Clear
11:38 PM 62.6 °F 41.0 °F 45% 30.16 in 10.0 mi WSW 9.2 mph - N/A   Clear
11:58 PM 59.0 °F 41.0 °F 51% 30.16 in 10.0 mi Calm Calm - N/A   Clear